{"data":{"norad_id":64381,"intl_designator":"2025-127M","name":"STARLINK-11692 [DTC]","alt_names":[],"object_type":"PAYLOAD","status":"ACTIVE","operator":null,"country":"US","launch_date":"2025-06-13","launch_site_code":"AFETR","launch_vehicle":null,"mission":null,"orbit_class":"UNKNOWN","rcs_meters":null,"size_class":null,"mass_kg":null,"dimensions":null,"purposes":["comms"],"wikipedia_slug":null,"has_3d_model":false,"image_url":null,"decayed_at":null,"tle_current":{"epoch":"2026-05-24T22:15:58.852800Z","epoch_age_seconds":75122,"freshness":"FRESH","line1":"1 64381U 25127M   26144.92776450  .00155468  00000+0  11912-2 0  9990","line2":"2 64381  42.9978 344.9063 0001015 278.1215  81.9538 15.70867469 55608","mean_motion":15.70867469,"eccentricity":0.0001015,"inclination_deg":42.9978,"raan_deg":344.9063,"arg_perigee_deg":278.1215,"mean_anomaly_deg":81.9538,"bstar":0.0011912,"rev_number":5560,"period_min":91.669095478608,"perigee_km":355.73299398429,"apogee_km":357.10010835518,"semimajor_km":6734.5535511697,"source":"CELESTRAK","updated_at":"2026-05-25T13:38:20.412256Z"}}}